| time (UTC) | temp C | wind direction | speed KPH | gust KPH | rain 1hr cm | rain 24hr cm | rain mn cm | humidity % | barometer mb |
| 20260510180025 | 17 | 185 | 1.6 | 4.8 | 0.00 | 0.00 | 0.00 | 71 | 1020.2 |
| 20260510174517 | 16 | 122 | 1.6 | 3.2 | 0.00 | 0.00 | 0.00 | 72 | 1020.1 |
| 20260510173021 | 16 | 45 | 1.6 | 6.4 | 0.00 | 0.00 | 0.00 | 76 | 1020.1 |
| 20260510171522 | 16 | 44 | 3.2 | 6.4 | 0.00 | 0.00 | 0.00 | 76 | 1020.3 |
| 20260510170026 | 15 | 89 | 0.0 | 4.8 | 0.00 | 0.00 | 0.00 | 75 | 1020.2 |
| 20260510164527 | 15 | 47 | 1.6 | 3.2 | 0.00 | 0.00 | 0.00 | 76 | 1020.0 |
| 20260510163017 | 15 | 50 | 1.6 | 4.8 | 0.00 | 0.00 | 0.00 | 78 | 1019.8 |
| 20260510161523 | 15 | 69 | 0.0 | 3.2 | 0.00 | 0.00 | 0.00 | 78 | 1020.0 |
| 20260510160030 | 14 | 188 | 0.0 | 3.2 | 0.00 | 0.00 | 0.00 | 80 | 1020.0 |
| 20260510154528 | 13 | 179 | 0.0 | 3.2 | 0.00 | 0.00 | 0.00 | 84 | 1019.8 |
| 20260510153025 | 12 | 76 | 0.0 | 3.2 | 0.00 | 0.00 | 0.00 | 87 | 1019.8 |
| 20260510151521 | 11 | 5 | 0.0 | 3.2 | 0.00 | 0.00 | 0.00 | 89 | 1019.8 |
| 20260510150007 | 11 | 314 | 0.0 | 3.2 | 0.00 | 0.00 | 0.00 | 91 | 1019.5 |
| 20260510144524 | 10 | 308 | 0.0 | 3.2 | 0.00 | 0.00 | 0.00 | 91 | 1019.4 |
| 20260510143010 | 10 | 304 | 0.0 | 3.2 | 0.00 | 0.00 | 0.00 | 92 | 1019.3 |
| 20260510141513 | 10 | 238 | 0.0 | 3.2 | 0.00 | 0.00 | 0.00 | 94 | 1019.1 |
| 20260510140006 | 9 | 218 | 1.6 | 3.2 | 0.00 | 0.00 | 0.00 | 94 | 1019.1 |
| 20260510134512 | 8 | 223 | 0.0 | 3.2 | 0.00 | 0.00 | 0.00 | 94 | 1018.7 |
| 20260510133028 | 8 | 249 | 0.0 | 3.2 | 0.00 | 0.00 | 0.00 | 94 | 1018.8 |
| 20260510131514 | 8 | 248 | 0.0 | 3.2 | 0.00 | 0.00 | 0.00 | 93 | 1018.7 |
| 20260510130016 | 8 | 252 | 0.0 | 3.2 | 0.00 | 0.00 | 0.00 | 93 | 1018.3 |
| 20260510124510 | 8 | 302 | 0.0 | 3.2 | 0.00 | 0.00 | 0.00 | 93 | 1018.5 |
| 20260510123014 | 8 | 338 | 0.0 | 3.2 | 0.00 | 0.00 | 0.00 | 93 | 1018.2 |
| 20260510121516 | 8 | 243 | 0.0 | 0.0 | 0.00 | 0.00 | 0.00 | 93 | 1018.5 |
| 20260510120022 | 8 | 243 | 0.0 | 3.2 | 0.00 | 0.00 | 0.00 | 93 | 1018.3 |
| 20260510114522 | 8 | 226 | 0.0 | 3.2 | 0.00 | 0.00 | 0.00 | 93 | 1018.2 |
| 20260510113011 | 8 | 240 | 0.0 | 3.2 | 0.00 | 0.00 | 0.00 | 92 | 1018.1 |
| 20260510111516 | 8 | 240 | 0.0 | 3.2 | 0.00 | 0.00 | 0.00 | 92 | 1018.0 |
| 20260510110017 | 8 | 240 | 0.0 | 3.2 | 0.00 | 0.00 | 0.00 | 92 | 1018.0 |
| 20260510104517 | 8 | 250 | 0.0 | 3.2 | 0.00 | 0.00 | 0.00 | 92 | 1017.8 |
| 20260510103017 | 8 | 250 | 0.0 | 3.2 | 0.00 | 0.00 | 0.00 | 91 | 1017.6 |
| 20260510101515 | 8 | 250 | 0.0 | 0.0 | 0.00 | 0.00 | 0.00 | 91 | 1017.6 |
| 20260510100016 | 8 | 250 | 0.0 | 3.2 | 0.00 | 0.00 | 0.00 | 91 | 1017.4 |
| 20260510094519 | 8 | 254 | 1.6 | 3.2 | 0.00 | 0.00 | 0.00 | 90 | 1017.4 |
| 20260510093020 | 9 | 164 | 0.0 | 0.0 | 0.00 | 0.00 | 0.00 | 90 | 1016.9 |
| 20260510091513 | 10 | 164 | 0.0 | 1.6 | 0.00 | 0.00 | 0.00 | 89 | 1017.1 |
| 20260510090018 | 10 | 164 | 0.0 | 3.2 | 0.00 | 0.00 | 0.00 | 90 | 1017.2 |
| 20260510084519 | 10 | 94 | 0.0 | 3.2 | 0.00 | 0.00 | 0.00 | 90 | 1017.2 |
| 20260510083022 | 10 | 208 | 0.0 | 3.2 | 0.00 | 0.00 | 0.00 | 88 | 1017.1 |
| 20260510081520 | 11 | 208 | 0.0 | 3.2 | 0.00 | 0.00 | 0.00 | 87 | 1016.8 |
| 20260510080014 | 11 | 200 | 0.0 | 3.2 | 0.00 | 0.00 | 0.00 | 87 | 1017.0 |
| 20260510074521 | 11 | 118 | 1.6 | 4.8 | 0.00 | 0.00 | 0.00 | 88 | 1017.0 |
| 20260510073031 | 11 | 138 | 0.0 | 3.2 | 0.00 | 0.00 | 0.00 | 87 | 1016.8 |
| 20260510071506 | 12 | 54 | 0.0 | 3.2 | 0.00 | 0.00 | 0.00 | 85 | 1016.7 |
| 20260510070011 | 12 | 70 | 0.0 | 3.2 | 0.00 | 0.00 | 0.00 | 84 | 1016.7 |
| 20260510064516 | 13 | 110 | 0.0 | 4.8 | 0.00 | 0.00 | 0.00 | 83 | 1016.7 |
| 20260510063032 | 13 | 120 | 0.0 | 3.2 | 0.00 | 0.00 | 0.00 | 82 | 1016.6 |
| 20260510061523 | 13 | 123 | 1.6 | 3.2 | 0.00 | 0.00 | 0.00 | 83 | 1016.6 |
| 20260510060018 | 13 | 132 | 0.0 | 3.2 | 0.00 | 0.00 | 0.00 | 79 | 1016.5 |
| 20260510054514 | 13 | 120 | 0.0 | 3.2 | 0.00 | 0.00 | 0.00 | 78 | 1016.5 |
| 20260510053018 | 14 | 120 | 0.0 | 3.2 | 0.00 | 0.00 | 0.00 | 74 | 1016.5 |
| 20260510051527 | 15 | 120 | 0.0 | 3.2 | 0.00 | 0.00 | 0.00 | 77 | 1016.5 |
| 20260510050024 | 14 | 109 | 0.0 | 3.2 | 0.00 | 0.00 | 0.00 | 77 | 1016.3 |
| 20260510044515 | 15 | 236 | 0.0 | 3.2 | 0.00 | 0.00 | 0.00 | 73 | 1016.3 |
| 20260510043020 | 15 | 246 | 0.0 | 3.2 | 0.00 | 0.00 | 0.00 | 71 | 1016.3 |
| 20260510041524 | 16 | 50 | 0.0 | 3.2 | 0.00 | 0.00 | 0.00 | 69 | 1016.2 |
| 20260510040005 | 16 | 169 | 0.0 | 3.2 | 0.00 | 0.00 | 0.00 | 66 | 1015.9 |
| 20260510034509 | 17 | 214 | 0.0 | 3.2 | 0.00 | 0.00 | 0.00 | 65 | 1015.4 |
| 20260510033017 | 18 | 214 | 0.0 | 3.2 | 0.00 | 0.00 | 0.00 | 61 | 1015.3 |
| 20260510031520 | 20 | 214 | 0.0 | 3.2 | 0.00 | 0.00 | 0.00 | 59 | 1015.2 |
| 20260510030008 | 21 | 198 | 0.0 | 3.2 | 0.00 | 0.00 | 0.00 | 51 | 1015.2 |
| 20260510024507 | 22 | 146 | 0.0 | 3.2 | 0.00 | 0.00 | 0.00 | 48 | 1015.1 |
| 20260510023012 | 23 | 146 | 0.0 | 3.2 | 0.00 | 0.00 | 0.00 | 43 | 1015.0 |
| 20260510021531 | 24 | 144 | 0.0 | 3.2 | 0.00 | 0.00 | 0.00 | 43 | 1015.1 |
| 20260510020022 | 25 | 219 | 0.0 | 3.2 | 0.00 | 0.00 | 0.00 | 45 | 1015.1 |
| 20260510014507 | 25 | 225 | 0.0 | 3.2 | 0.00 | 0.00 | 0.00 | 39 | 1015.1 |
| 20260510013009 | 26 | 283 | 0.0 | 3.2 | 0.00 | 0.00 | 0.00 | 32 | 1015.3 |
| 20260510011516 | 25 | 289 | 1.6 | 4.8 | 0.00 | 0.00 | 0.00 | 30 | 1015.5 |
| 20260510010021 | 26 | 281 | 1.6 | 3.2 | 0.00 | 0.00 | 0.00 | 26 | 1015.5 |
| 20260510004522 | 25 | 242 | 0.0 | 3.2 | 0.00 | 0.00 | 0.00 | 27 | 1015.6 |
| 20260510003010 | 25 | 15 | 0.0 | 8.0 | 0.00 | 0.00 | 0.00 | 30 | 1015.5 |
| 20260510001513 | 25 | 246 | 3.2 | 4.8 | 0.00 | 0.00 | 0.00 | 30 | 1015.8 |
| 20260510000020 | 25 | 342 | 3.2 | 6.4 | 0.00 | 0.00 | 0.00 | 29 | 1015.9 |
| 20260509234529 | 25 | 9 | 0.0 | 6.4 | 0.00 | 0.00 | 0.00 | 31 | 1016.0 |
| 20260509233006 | 25 | 61 | 1.6 | 8.0 | 0.00 | 0.00 | 0.00 | 29 | 1015.9 |
| 20260509231512 | 25 | 5 | 4.8 | 8.0 | 0.00 | 0.00 | 0.00 | 33 | 1016.1 |
| 20260509230016 | 25 | 264 | 3.2 | 11.3 | 0.00 | 0.00 | 0.00 | 33 | 1016.2 |
| 20260509224522 | 25 | 9 | 3.2 | 9.7 | 0.00 | 0.00 | 0.00 | 35 | 1016.5 |
| 20260509223028 | 24 | 246 | 3.2 | 11.3 | 0.00 | 0.00 | 0.00 | 36 | 1016.7 |
| 20260509221512 | 24 | 360 | 4.8 | 12.9 | 0.00 | 0.00 | 0.00 | 36 | 1017.0 |
| 20260509220017 | 24 | 317 | 3.2 | 9.7 | 0.00 | 0.00 | 0.00 | 38 | 1017.4 |
| 20260509214519 | 23 | 291 | 1.6 | 9.7 | 0.00 | 0.00 | 0.00 | 41 | 1017.7 |
| 20260509213024 | 23 | 311 | 3.2 | 9.7 | 0.00 | 0.00 | 0.00 | 42 | 1017.9 |
| 20260509211527 | 22 | 317 | 1.6 | 12.9 | 0.00 | 0.00 | 0.00 | 47 | 1018.0 |
| 20260509210012 | 22 | 257 | 1.6 | 8.0 | 0.00 | 0.00 | 0.00 | 48 | 1018.2 |
| 20260509204519 | 21 | 360 | 1.6 | 12.9 | 0.00 | 0.00 | 0.00 | 50 | 1018.4 |
| 20260509203024 | 21 | 9 | 3.2 | 12.9 | 0.00 | 0.00 | 0.00 | 48 | 1018.5 |
| 20260509201523 | 21 | 5 | 4.8 | 9.7 | 0.00 | 0.00 | 0.00 | 50 | 1018.7 |
| 20260509200010 | 21 | 282 | 3.2 | 9.7 | 0.00 | 0.00 | 0.00 | 51 | 1019.1 |
| 20260509194517 | 20 | 348 | 8.0 | 16.1 | 0.00 | 0.00 | 0.00 | 51 | 1019.3 |
| 20260509193024 | 20 | 352 | 6.4 | 14.5 | 0.00 | 0.00 | 0.00 | 55 | 1019.4 |
| 20260509191526 | 20 | 296 | 6.4 | 12.9 | 0.00 | 0.00 | 0.00 | 55 | 1019.7 |
| 20260509190026 | 20 | 287 | 3.2 | 14.5 | 0.00 | 0.00 | 0.00 | 58 | 1020.0 |
| 20260509184522 | 19 | 304 | 4.8 | 14.5 | 0.00 | 0.00 | 0.00 | 60 | 1020.1 |
| 20260509183020 | 18 | 325 | 9.7 | 14.5 | 0.00 | 0.00 | 0.00 | 61 | 1020.3 |
| 20260509181525 | 18 | 346 | 6.4 | 12.9 | 0.00 | 0.00 | 0.00 | 64 | 1020.2 |